| time (UTC) | temp F | wind direction | speed MPH | gust MPH | rain 1hr in | rain 24hr in | rain mn in | humidity % | barometer mb |
| 20260831213239 | 67 | 156 | 3.0 | 6.0 | 0.00 | 0.00 | 0.06 | 79 | 1020.0 |
| 20260831212239 | 67 | 136 | 4.0 | 7.0 | 0.00 | 0.00 | 0.06 | 79 | 1019.9 |
| 20260831211239 | 67 | 143 | 3.0 | 7.0 | 0.00 | 0.00 | 0.06 | 79 | 1019.9 |
| 20260831210238 | 67 | 201 | 2.0 | 5.0 | 0.00 | 0.00 | 0.06 | 78 | 1019.8 |
| 20260831204238 | 68 | 225 | 3.0 | 10.0 | 0.00 | 0.00 | 0.06 | 75 | 1019.5 |
| 20260831203237 | 69 | 191 | 2.0 | 6.0 | 0.00 | 0.00 | 0.06 | 73 | 1019.5 |
| 20260831202237 | 69 | 194 | 3.0 | 8.0 | 0.00 | 0.00 | 0.06 | 72 | 1019.5 |
| 20260831201236 | 69 | 181 | 3.0 | 6.0 | 0.00 | 0.00 | 0.06 | 72 | 1019.4 |
| 20260831195235 | 69 | 136 | 4.0 | 7.0 | 0.00 | 0.00 | 0.06 | 72 | 1019.4 |
| 20260831194235 | 69 | 152 | 5.0 | 9.0 | 0.00 | 0.00 | 0.06 | 72 | 1019.4 |
| 20260831191233 | 70 | 176 | 4.0 | 8.0 | 0.00 | 0.00 | 0.06 | 73 | 1018.9 |
| 20260831190233 | 70 | 179 | 2.0 | 4.0 | 0.00 | 0.00 | 0.06 | 72 | 1018.7 |
| 20260831185233 | 70 | 165 | 3.0 | 9.0 | 0.00 | 0.00 | 0.06 | 71 | 1018.6 |
| 20260831184232 | 70 | 167 | 4.0 | 10.0 | 0.00 | 0.00 | 0.06 | 70 | 1018.5 |
| 20260831183232 | 70 | 172 | 4.0 | 9.0 | 0.00 | 0.00 | 0.06 | 71 | 1018.4 |
| 20260831182232 | 71 | 183 | 4.0 | 9.0 | 0.00 | 0.00 | 0.06 | 70 | 1018.3 |
| 20260831181231 | 71 | 204 | 4.0 | 9.0 | 0.00 | 0.00 | 0.06 | 71 | 1017.9 |
| 20260831180231 | 71 | 194 | 4.0 | 10.0 | 0.00 | 0.00 | 0.06 | 71 | 1017.7 |
| 20260831175231 | 71 | 203 | 2.0 | 6.0 | 0.00 | 0.00 | 0.06 | 74 | 1017.5 |
| 20260831174230 | 73 | 212 | 4.0 | 9.0 | 0.00 | 0.00 | 0.06 | 70 | 1017.4 |
| 20260831173230 | 73 | 204 | 2.0 | 8.0 | 0.00 | 0.00 | 0.06 | 69 | 1017.4 |
| 20260831172229 | 74 | 204 | 2.0 | 5.0 | 0.00 | 0.00 | 0.06 | 69 | 1017.3 |
| 20260831170228 | 74 | 288 | 3.0 | 10.0 | 0.00 | 0.00 | 0.06 | 67 | 1017.3 |
| 20260831165228 | 75 | 203 | 2.0 | 6.0 | 0.00 | 0.00 | 0.06 | 67 | 1017.2 |
| 20260831164228 | 75 | 215 | 2.0 | 8.0 | 0.00 | 0.00 | 0.06 | 66 | 1017.0 |
| 20260831163228 | 75 | 203 | 3.0 | 6.0 | 0.00 | 0.00 | 0.06 | 66 | 1017.0 |
| 20260831162227 | 76 | 207 | 3.0 | 8.0 | 0.00 | 0.00 | 0.06 | 63 | 1016.9 |
| 20260831161227 | 75 | 207 | 3.0 | 10.0 | 0.00 | 0.00 | 0.06 | 63 | 1016.7 |
| 20260831160226 | 76 | 195 | 3.0 | 7.0 | 0.00 | 0.00 | 0.06 | 65 | 1016.8 |
| 20260831155226 | 76 | 205 | 5.0 | 11.0 | 0.00 | 0.00 | 0.06 | 64 | 1016.9 |
| 20260831154226 | 77 | 184 | 2.0 | 6.0 | 0.00 | 0.00 | 0.06 | 66 | 1016.8 |
| 20260831153225 | 77 | 201 | 4.0 | 9.0 | 0.00 | 0.00 | 0.06 | 64 | 1017.0 |
| 20260831152225 | 78 | 195 | 2.0 | 4.0 | 0.00 | 0.00 | 0.06 | 66 | 1017.0 |
| 20260831151224 | 77 | 219 | 2.0 | 8.0 | 0.00 | 0.00 | 0.06 | 64 | 1017.2 |
| 20260831150224 | 77 | 204 | 2.0 | 6.0 | 0.00 | 0.00 | 0.06 | 65 | 1017.3 |
| 20260831145224 | 77 | 212 | 3.0 | 7.0 | 0.00 | 0.00 | 0.06 | 63 | 1017.4 |
| 20260831144223 | 76 | 218 | 3.0 | 8.0 | 0.00 | 0.00 | 0.06 | 67 | 1017.4 |
| 20260831141222 | 79 | 207 | 5.0 | 10.0 | 0.00 | 0.00 | 0.06 | 60 | 1017.2 |
| 20260831140222 | 80 | 197 | 4.0 | 10.0 | 0.00 | 0.00 | 0.06 | 57 | 1017.2 |
| 20260831135222 | 80 | 219 | 5.0 | 10.0 | 0.00 | 0.00 | 0.06 | 59 | 1017.3 |
| 20260831134221 | 83 | 211 | 2.0 | 7.0 | 0.00 | 0.00 | 0.06 | 50 | 1017.2 |
| 20260831133221 | 82 | 288 | 2.0 | 6.0 | 0.00 | 0.00 | 0.06 | 58 | 1017.3 |
| 20260831132220 | 81 | 224 | 2.0 | 8.0 | 0.00 | 0.00 | 0.06 | 60 | 1017.3 |
| 20260831131220 | 81 | 170 | 1.0 | 5.0 | 0.00 | 0.00 | 0.06 | 59 | 1017.4 |
| 20260831130220 | 80 | 288 | 3.0 | 10.0 | 0.00 | 0.00 | 0.06 | 61 | 1017.7 |
| 20260831125219 | 79 | 288 | 3.0 | 10.0 | 0.00 | 0.00 | 0.06 | 64 | 1017.6 |
| 20260831124219 | 78 | 229 | 2.0 | 10.0 | 0.00 | 0.00 | 0.06 | 63 | 1017.7 |
| 20260831122218 | 78 | 208 | 2.0 | 6.0 | 0.00 | 0.00 | 0.06 | 65 | 1017.9 |
| 20260831120217 | 79 | 288 | 0.0 | 4.0 | 0.00 | 0.00 | 0.06 | 64 | 1017.9 |
| 20260831115217 | 76 | 225 | 1.0 | 5.0 | 0.00 | 0.00 | 0.06 | 68 | 1017.7 |
| 20260831113217 | 79 | 288 | 2.0 | 8.0 | 0.00 | 0.00 | 0.06 | 63 | 1018.0 |
| 20260831110215 | 76 | 198 | 5.0 | 9.0 | 0.00 | 0.00 | 0.06 | 69 | 1018.0 |
| 20260831105215 | 76 | 210 | 4.0 | 11.0 | 0.00 | 0.00 | 0.06 | 67 | 1018.2 |
| 20260831104215 | 75 | 198 | 1.0 | 8.0 | 0.00 | 0.00 | 0.06 | 71 | 1018.1 |
| 20260831103214 | 75 | 190 | 3.0 | 9.0 | 0.00 | 0.00 | 0.06 | 73 | 1018.2 |
| 20260831102214 | 76 | 288 | 2.0 | 7.0 | 0.00 | 0.00 | 0.06 | 70 | 1018.2 |
| 20260831101214 | 76 | 200 | 4.0 | 10.0 | 0.00 | 0.00 | 0.06 | 69 | 1018.3 |
| 20260831100213 | 73 | 203 | 2.0 | 11.0 | 0.00 | 0.00 | 0.06 | 75 | 1018.3 |
| 20260831094213 | 73 | 211 | 5.0 | 11.0 | 0.00 | 0.00 | 0.06 | 78 | 1018.4 |
| 20260831093212 | 74 | 288 | 2.0 | 9.0 | 0.00 | 0.00 | 0.06 | 77 | 1018.4 |
| 20260831092212 | 73 | 198 | 5.0 | 11.0 | 0.00 | 0.00 | 0.06 | 79 | 1018.4 |
| 20260831091211 | 73 | 201 | 4.0 | 11.0 | 0.00 | 0.00 | 0.06 | 79 | 1018.4 |
| 20260831090211 | 73 | 201 | 4.0 | 12.0 | 0.00 | 0.00 | 0.06 | 78 | 1018.5 |
| 20260831085211 | 72 | 193 | 3.0 | 11.0 | 0.00 | 0.00 | 0.06 | 80 | 1018.5 |
| 20260831084211 | 72 | 200 | 5.0 | 15.0 | 0.00 | 0.00 | 0.06 | 79 | 1018.4 |
| 20260831083210 | 71 | 198 | 5.0 | 10.0 | 0.00 | 0.00 | 0.06 | 80 | 1018.3 |
| 20260831082209 | 72 | 288 | 2.0 | 10.0 | 0.00 | 0.00 | 0.06 | 81 | 1018.2 |
| 20260831081209 | 72 | 214 | 4.0 | 9.0 | 0.00 | 0.00 | 0.06 | 83 | 1018.2 |
| 20260831080209 | 73 | 167 | 3.0 | 8.0 | 0.00 | 0.00 | 0.06 | 78 | 1018.1 |
| 20260831073208 | 73 | 221 | 2.0 | 6.0 | 0.00 | 0.00 | 0.06 | 82 | 1017.9 |
| 20260831072207 | 72 | 51 | 4.0 | 7.0 | 0.00 | 0.00 | 0.06 | 81 | 1017.7 |
| 20260831071207 | 70 | 146 | 3.0 | 7.0 | 0.00 | 0.00 | 0.06 | 82 | 1018.0 |
| 20260831065206 | 66 | 0 | 0.0 | 0.0 | 0.00 | 0.00 | 0.06 | 95 | 1018.0 |
| 20260831064206 | 66 | 0 | 0.0 | 0.0 | 0.00 | 0.00 | 0.06 | 96 | 1018.0 |
| 20260831063206 | 65 | 0 | 0.0 | 0.0 | 0.00 | 0.00 | 0.06 | 96 | 1017.9 |
| 20260831062205 | 64 | 0 | 0.0 | 0.0 | 0.00 | 0.00 | 0.06 | 97 | 1017.9 |
| 20260831061205 | 64 | 0 | 0.0 | 0.0 | 0.00 | 0.00 | 0.06 | 97 | 1018.0 |
| 20260831060205 | 64 | 0 | 0.0 | 0.0 | 0.00 | 0.00 | 0.06 | 97 | 1018.1 |
| 20260831055204 | 64 | 0 | 0.0 | 0.0 | 0.00 | 0.00 | 0.06 | 98 | 1018.0 |
| 20260831053204 | 64 | 0 | 0.0 | 0.0 | 0.00 | 0.00 | 0.05 | 98 | 1017.7 |
| 20260831052203 | 64 | 0 | 0.0 | 0.0 | 0.00 | 0.00 | 0.05 | 98 | 1017.9 |
| 20260831051203 | 64 | 0 | 0.0 | 0.0 | 0.00 | 0.00 | 0.05 | 98 | 1017.7 |
| 20260831050202 | 65 | 0 | 0.0 | 0.0 | 0.00 | 0.00 | 0.05 | 97 | 1017.0 |
| 20260831045202 | 65 | 0 | 0.0 | 0.0 | 0.00 | 0.00 | 0.05 | 97 | 1017.4 |
| 20260831044201 | 65 | 187 | 2.0 | 17.0 | 0.00 | 0.00 | 0.05 | 97 | 1017.5 |
| 20260831043201 | 64 | 190 | 5.0 | 18.0 | 0.00 | 0.00 | 0.05 | 99 | 1017.0 |
| 20260831042201 | 64 | 156 | 3.0 | 8.0 | 0.00 | 0.00 | 0.05 | 98 | 1015.0 |
| 20260831041201 | 64 | 65 | 2.0 | 5.0 | 0.00 | 0.00 | 0.05 | 99 | 1015.3 |
| 20260831040200 | 64 | 75 | 0.0 | 2.0 | 0.00 | 0.00 | 0.05 | 99 | 1015.6 |
| 20260831035200 | 64 | 58 | 0.0 | 1.0 | 0.00 | 0.00 | 0.05 | 99 | 1015.3 |
| 20260831034200 | 64 | 63 | 3.0 | 6.0 | 0.00 | 0.00 | 0.05 | 99 | 1015.1 |
| 20260831033159 | 64 | 48 | 2.0 | 4.0 | 0.00 | 0.00 | 0.05 | 98 | 1015.2 |
| 20260831032159 | 64 | 41 | 2.0 | 5.0 | 0.00 | 0.00 | 0.05 | 98 | 1015.1 |
| 20260831031158 | 64 | 56 | 2.0 | 5.0 | 0.00 | 0.00 | 0.05 | 99 | 1015.1 |
| 20260831030159 | 64 | 184 | 1.0 | 5.0 | 0.00 | 0.00 | 0.05 | 99 | 1015.4 |
| 20260831025157 | 64 | 132 | 1.0 | 2.0 | 0.00 | 0.00 | 0.05 | 99 | 1015.3 |
| 20260831022156 | 65 | 45 | 5.0 | 9.0 | 0.00 | 0.00 | 0.05 | 97 | 1015.0 |
| 20260831021156 | 65 | 39 | 5.0 | 10.0 | 0.00 | 0.00 | 0.05 | 97 | 1015.0 |
| 20260831020156 | 65 | 141 | 5.0 | 9.0 | 0.00 | 0.00 | 0.05 | 97 | 1015.2 |
| 20260831015156 | 64 | 51 | 5.0 | 10.0 | 0.00 | 0.00 | 0.05 | 98 | 1015.4 |
| 20260831014155 | 64 | 13 | 4.0 | 10.0 | 0.00 | 0.00 | 0.04 | 98 | 1015.6 |
| 20260831012154 | 64 | 41 | 5.0 | 11.0 | 0.00 | 0.00 | 0.03 | 97 | 1015.7 |
| 20260831011154 | 64 | 51 | 4.0 | 8.0 | 0.00 | 0.00 | 0.03 | 97 | 1015.8 |
| 20260831010153 | 64 | 39 | 4.0 | 6.0 | 0.00 | 0.00 | 0.03 | 98 | 1015.9 |
| 20260831004153 | 65 | 141 | 3.0 | 6.0 | 0.00 | 0.00 | 0.01 | 96 | 1016.7 |
| 20260831003152 | 66 | 159 | 4.0 | 8.0 | 0.00 | 0.00 | 0.01 | 96 | 1016.6 |
| 20260831002152 | 66 | 174 | 2.0 | 6.0 | 0.00 | 0.00 | 0.00 | 97 | 1016.9 |
| 20260831001152 | 66 | 179 | 2.0 | 5.0 | 0.00 | 0.00 | 0.00 | 97 | 1016.8 |
| 20260831000152 | 68 | 198 | 1.0 | 5.0 | 0.00 | 0.00 | 0.00 | 93 | 1016.5 |
| 20260830234151 | 69 | 146 | 2.0 | 5.0 | 0.00 | 0.00 | 0.00 | 87 | 1016.3 |
| 20260830233150 | 68 | 145 | 3.0 | 8.0 | 0.00 | 0.00 | 0.00 | 88 | 1016.3 |
| 20260830232150 | 68 | 204 | 5.0 | 12.0 | 0.00 | 0.00 | 0.00 | 89 | 1016.5 |
| 20260830231150 | 72 | 181 | 4.0 | 7.0 | 0.00 | 0.00 | 0.00 | 77 | 1015.7 |
| 20260830230149 | 71 | 124 | 3.0 | 8.0 | 0.00 | 0.00 | 0.00 | 78 | 1015.9 |
| 20260830225149 | 69 | 97 | 3.0 | 6.0 | 0.00 | 0.00 | 0.00 | 83 | 1016.2 |
| 20260830224148 | 67 | 167 | 1.0 | 3.0 | 0.00 | 0.00 | 0.00 | 90 | 1016.4 |
| 20260830222148 | 66 | 0 | 0.0 | 0.0 | 0.00 | 0.00 | 0.00 | 92 | 1016.4 |
| 20260830221147 | 66 | 0 | 0.0 | 0.0 | 0.00 | 0.00 | 0.00 | 91 | 1016.3 |
| 20260830220147 | 66 | 0 | 0.0 | 0.0 | 0.00 | 0.00 | 0.00 | 91 | 1016.4 |
| 20260830215147 | 67 | 0 | 0.0 | 0.0 | 0.00 | 0.00 | 0.00 | 90 | 1016.3 |